FW9581 Weather Reports


time (UTC)temp
F
wind
direction
speed
knots
gust
knots
rain 1hr
in
rain 24hr
in
rain mn
in
humidity
%
barometer
mb
20260906080115 83 274 0.0 1.7 0.00 0.00 0.00 66 1020.9
20260906074627 81 274 1.7 3.5 0.00 0.00 0.00 68 1020.7
20260906073005 82 274 0.9 5.2 0.00 0.00 0.00 72 1020.6
20260906071521 82 203 0.9 2.6 0.00 0.00 0.00 73 1020.5
20260906070117 81 203 0.0 1.7 0.00 0.00 0.00 74 1020.5
20260906064630 80 203 0.9 2.6 0.00 0.00 0.00 75 1020.3
20260906063048 79 244 0.0 2.6 0.00 0.00 0.00 78 1020.4
20260906061610 78 252 0.9 2.6 0.00 0.00 0.00 80 1020.3
20260906060112 77 156 0.9 2.6 0.00 0.00 0.00 81 1020.2
20260906054621 77 156 0.0 0.9 0.00 0.00 0.00 82 1020.0
20260906053133 76 156 0.0 0.9 0.00 0.00 0.00 84 1019.9
20260906051504 74 156 0.0 0.9 0.00 0.00 0.00 86 1019.9
20260906050105 74 134 0.0 1.7 0.00 0.00 0.00 86 1019.8
20260906044623 74 225 0.0 0.9 0.00 0.00 0.00 86 1019.7
20260906043051 74 253 0.0 1.7 0.00 0.00 0.00 86 1019.6
20260906041621 74 253 0.0 1.7 0.00 0.00 0.00 85 1019.7
20260906040023 75 253 0.0 1.7 0.00 0.00 0.00 85 1019.6
20260906034620 74 253 0.0 2.6 0.00 0.00 0.00 85 1019.6
20260906033139 74 253 0.0 0.9 0.00 0.00 0.00 84 1019.5
20260906031527 74 253 0.0 0.0 0.00 0.00 0.00 84 1019.5
20260906030124 74 253 0.0 0.9 0.00 0.00 0.00 85 1019.6
20260906024508 74 253 0.0 0.9 0.00 0.00 0.00 86 1019.6
20260906023120 75 253 0.0 0.0 0.00 0.00 0.00 85 1019.6
20260906021505 75 253 0.0 1.7 0.00 0.00 0.00 86 1019.7
20260906020111 74 253 0.0 2.6 0.00 0.00 0.00 86 1019.7
20260906014502 74 253 0.9 2.6 0.00 0.00 0.00 85 1019.7
20260906013103 74 253 0.0 0.9 0.00 0.00 0.00 85 1019.7
20260906011625 75 253 0.0 0.9 0.00 0.00 0.00 84 1019.7
20260906010019 75 253 0.0 0.0 0.00 0.00 0.00 85 1019.8
20260906004621 75 253 0.0 1.7 0.00 0.00 0.00 86 1019.8
20260906003050 75 253 0.0 1.7 0.00 0.00 0.00 86 1019.8
20260906001619 75 253 0.0 0.0 0.00 0.00 0.00 85 1019.8
20260906000046 76 253 0.0 1.7 0.00 0.00 0.00 86 1019.9
20260905234617 75 253 0.0 0.0 0.00 0.00 0.00 86 1019.9
20260905233128 75 253 0.0 0.0 0.00 0.00 0.00 86 1019.9
20260905231514 75 253 0.0 0.0 0.00 0.00 0.00 85 1019.9
20260905230124 75 253 0.0 0.0 0.00 0.00 0.00 84 1019.9
20260905224506 76 253 0.0 0.0 0.00 0.00 0.00 85 1020.0
20260905223118 76 253 0.0 0.0 0.00 0.00 0.00 85 1020.0
20260905221508 76 253 0.0 0.0 0.00 0.00 0.00 84 1020.0
20260905220111 76 253 0.0 0.9 0.00 0.00 0.00 83 1019.9
20260905214621 76 253 0.0 0.0 0.00 0.00 0.00 82 1019.9
20260905213050 76 253 0.0 0.0 0.00 0.00 0.00 81 1019.9
20260905211631 76 253 0.0 0.0 0.00 0.00 0.00 81 1019.9
20260905210129 76 253 0.0 0.0 0.00 0.00 0.00 80 1019.9
20260905204516 76 253 0.0 0.0 0.00 0.00 0.00 80 1019.9
20260905203123 76 253 0.0 0.9 0.00 0.00 0.00 79 1019.9
20260905201559 76 253 0.0 0.9 0.00 0.00 0.00 79 1019.9
20260905200122 76 253 0.0 2.6 0.00 0.00 0.00 79 1020.0
20260905194507 77 253 1.7 2.6 0.00 0.00 0.00 76 1019.9
20260905193121 78 253 0.0 2.6 0.00 0.00 0.00 77 1019.8
20260905191503 78 253 0.0 2.6 0.00 0.00 0.00 76 1019.7
20260905190114 79 253 0.0 3.5 0.00 0.00 0.00 74 1019.6
20260905184559 79 253 3.5 7.0 0.00 0.00 0.00 74 1019.5
20260905183110 80 253 2.6 7.0 0.00 0.00 0.00 74 1019.4
20260905181503 79 239 1.7 5.2 0.00 0.00 0.00 75 1019.3
20260905180109 79 225 2.6 8.7 0.00 0.00 0.00 76 1019.2
20260905174641 80 245 2.6 7.0 0.00 0.00 0.00 77 1019.3
20260905173108 80 243 1.7 8.7 0.00 0.00 0.00 76 1019.1
20260905171634 81 223 2.6 11.3 0.00 0.00 0.00 74 1018.9
20260905170101 82 233 5.2 9.6 0.00 0.00 0.00 72 1018.9
20260905164623 83 232 5.2 10.4 0.00 0.00 0.00 66 1018.9
20260905163053 84 254 3.5 7.8 0.00 0.00 0.00 64 1018.8
20260905161618 84 235 5.2 10.4 0.00 0.00 0.00 61 1018.7
20260905160010 85 205 1.7 7.0 0.00 0.00 0.00 60 1018.8
20260905154611 85 257 6.1 9.6 0.00 0.00 0.00 59 1018.8
20260905153134 86 228 4.3 9.6 0.00 0.00 0.00 52 1018.9
20260905151603 87 243 4.3 9.6 0.00 0.00 0.00 49 1018.9
20260905150126 88 246 4.3 13.0 0.00 0.00 0.00 45 1018.9
20260905144514 89 201 5.2 8.7 0.00 0.00 0.00 38 1018.9
20260905143118 89 247 3.5 10.4 0.00 0.00 0.00 42 1018.9
20260905141504 88 253 3.5 12.2 0.00 0.00 0.00 50 1019.0
20260905140116 88 255 6.1 10.4 0.00 0.00 0.00 45 1019.0
20260905134510 88 247 3.5 7.8 0.00 0.00 0.00 44 1019.0
20260905133117 88 241 5.2 9.6 0.00 0.00 0.00 45 1019.1
20260905131503 88 244 5.2 10.4 0.00 0.00 0.00 44 1019.2
20260905130111 89 212 3.5 7.8 0.00 0.00 0.00 44 1019.4
20260905124638 89 191 4.3 9.6 0.00 0.00 0.00 45 1019.5
20260905123055 88 222 5.2 12.2 0.00 0.00 0.00 46 1019.5
20260905121622 88 234 6.1 10.4 0.00 0.00 0.00 51 1019.6
20260905120113 87 217 3.5 10.4 0.00 0.00 0.00 53 1019.7
20260905114618 88 191 4.3 8.7 0.00 0.00 0.00 51 1019.6
20260905113048 87 277 4.3 8.7 0.00 0.00 0.00 53 1019.6
20260905111614 88 216 1.7 8.7 0.00 0.00 0.00 51 1019.6
20260905110129 87 194 4.3 8.7 0.00 0.00 0.00 62 1019.7
20260905104519 87 216 2.6 8.7 0.00 0.00 0.00 65 1019.6
20260905103124 87 181 3.5 7.0 0.00 0.00 0.00 64 1019.8
20260905101508 86 250 3.5 8.7 0.00 0.00 0.00 63 1019.9
20260905100112 86 199 4.3 7.0 0.00 0.00 0.00 62 1020.0
20260905094633 86 218 4.3 7.0 0.00 0.00 0.00 59 1020.1
20260905093057 86 246 2.6 7.8 0.00 0.00 0.00 56 1020.1
20260905091624 86 226 1.7 5.2 0.00 0.00 0.00 56 1020.1
20260905090121 85 249 3.5 6.1 0.00 0.00 0.00 55 1020.0
20260905084644 86 253 1.7 7.0 0.00 0.00 0.00 54 1019.9
20260905083021 87 356 0.0 2.6 0.00 0.00 0.00 53 1019.8
20260905081620 88 356 0.0 1.7 0.00 0.00 0.00 51 1019.6